This is the latest recevied weather packets stored in our database for station/object IZ5TJI-3. If no packets are shown the sender has not sent any weather packets the latest 1 day(s).
| Time | Temp. | Humidity | Pressure | Rain* | Wind** | Luminosity | Snow |
|---|---|---|---|---|---|---|---|
| 1778016615 | 15° C | 91% | 1011.6 hPa | 0.51 mm | 3.13 m/s, 157° | - | - |
| 1778015715 | 15° C | 90% | 1011.7 hPa | 0 mm | 1.34 m/s, 112° | - | - |
| 1778014815 | 15.56° C | 89% | 1011.9 hPa | 0 mm | 0.45 m/s, 157° | - | - |
| 1778013915 | 15.56° C | 89% | 1012 hPa | 0 mm | 1.79 m/s, 157° | - | - |
| 1778013015 | 15.56° C | 88% | 1012 hPa | 0 mm | 0.89 m/s, 180° | - | - |
| 1778012115 | 16.11° C | 87% | 1011.8 hPa | 0 mm | 1.34 m/s, 157° | - | - |
| 1778011215 | 16.11° C | 87% | 1011.8 hPa | 0 mm | 0.45 m/s, 157° | - | - |
| 1778010315 | 16.67° C | 86% | 1011.7 hPa | 0 mm | 0.89 m/s, 180° | - | - |
| 1778009415 | 16.67° C | 85% | 1011.6 hPa | 0 mm | 0 m/s | - | - |
| 1778008515 | 16.67° C | 85% | 1011.6 hPa | 0 mm | 2.24 m/s, 157° | - | - |
| 1778007615 | 16.67° C | 87% | 1011.3 hPa | 0 mm | 1.34 m/s, 180° | - | - |
| 1778006715 | 16.67° C | 87% | 1011.4 hPa | 0 mm | 0 m/s | - | - |
| 1778005815 | 16.67° C | 86% | 1011.3 hPa | 0 mm | 0 m/s | - | - |
| 1778004915 | 17.22° C | 86% | 1011.2 hPa | 0 mm | 0.45 m/s, 270° | - | - |
| 1778004020 | 17.22° C | 85% | 1011.1 hPa | 0 mm | 0 m/s | - | - |
| 1778003115 | 17.78° C | 84% | 1011.2 hPa | 0 mm | 1.34 m/s, 247° | - | - |
| 1778002215 | 17.78° C | 84% | 1011.1 hPa | 0 mm | 2.24 m/s, 292° | - | - |
| 1778001315 | 17.78° C | 83% | 1011.3 hPa | 0 mm | 2.68 m/s, 202° | - | - |
| 1778000415 | 17.78° C | 82% | 1011.2 hPa | 0 mm | 1.34 m/s, 225° | - | - |
| 1777999515 | 17.78° C | 82% | 1011.1 hPa | 0.51 mm | 0.89 m/s, 225° | - | - |
| 1777998615 | 17.78° C | 83% | 1011.3 hPa | 0.51 mm | 1.79 m/s, 270° | - | - |
| 1777997715 | 17.78° C | 84% | 1011.3 hPa | 0.51 mm | 1.79 m/s, 225° | - | - |
| 1777996815 | 17.78° C | 85% | 1011.2 hPa | 0.51 mm | 0.89 m/s, 202° | - | - |
| 1777995915 | 17.78° C | 86% | 1011.3 hPa | 0 mm | 1.79 m/s, 225° | - | - |
| 1777995015 | 17.78° C | 85% | 1011.5 hPa | 0 mm | 2.68 m/s, 225° | - | - |
* Rain latest hour (hover to see other rain measurements)
** Current wind speed in m/s (hover to see current wind gust speed)